Location: Unspecified
(0.0000°N, 0.0000°E)
Time: 17:03:01
(UTC+00:00)

STARLINK-35998 - Pass Details

Date: 04 March 2026
Orbit: 267 x 268 km, 53.2° (Epoch: 6 March)

Event Time Altitude Azimuth Distance (km) Brightness Sun altitude
Rises 19:01:57 0° 218° (SW) 1,836 6.0 -12.5°
Reaches altitude 10° 19:03:49 10° 222° (SW) 1,037 4.8 -13.0°
Maximum altitude 19:06:05 60° 304° (WNW) 300 1.5 -13.5°
Enters shadow 19:07:25 21° 20° (NNE) 655 2.8 -13.9°
